Weather History for Jackson, MN

Change the Weather History Date:

Saturday, September 14, 2013

  Actual Average Record
Temperature  
Mean Temperature 60 °F -  
Max Temperature 71 °F 72 °F 87 °F (2006)
Min Temperature 50 °F 49 °F 30 °F (1996)
Degree Days  
Heating Degree Days 4    
Growing Degree Days 10 (Base 50)    
Moisture  
Dew Point 46 °F    
Average Humidity 61    
Maximum Humidity 77    
Minimum Humidity 35    
Precipitation  
Precipitation 0.01 in - - ()
Sea Level Pressure  
Sea Level Pressure 29.99 in    
Wind  
Wind Speed 10 mph (South)    
Max Wind Speed 18 mph    
Max Gust Speed 28 mph    
Visibility 10 miles    
Events Rain    
Averages and records for this station are not official NWS values.
T = Trace of Precipitation, MM = Missing Value Source: NWS Daily Summary

Daily Weather History Graph

Daily Weather History Graph

Search for Another Location

Airport:

Trip Planner

Search our weather history database for the weather conditions in past years. The results will help you decide how hot, cold, wet, or windy it might be!

Date:

Astronomy

Sep. 14, 2013 Rise Set
Actual Time 6:58 AM CDT 7:31 PM CDT
Civil Twilight 6:29 AM CDT 8:00 PM CDT
Nautical Twilight 5:55 AM CDT 8:34 PM CDT
Astronomical Twilight 5:20 AM CDT 9:09 PM CDT
Moon 4:20 PM CDT (9/14) 1:23 AM CDT (9/14)
Length of Visible Light 13h 30m
Length of Day
12h 33m
Waxing Gibbous, 72% of the Moon is Illuminated
Sep 14
Waxing Gibbous
Sep 19
Full
Sep 26
Last Quarter
Oct 4
New
Oct 11
First Quarter

Hourly Weather History & Observations

Time (CDT) Temp. Dew Point Humidity Pressure Visibility Wind Dir Wind Speed Gust Speed Precip Events Conditions
12:14 AM 55.4 °F 42.8 °F 63% 30.10 in 10.0 mi South 8.1 mph - N/A   Clear
12:33 AM 53.6 °F 42.8 °F 67% 30.10 in 10.0 mi South 8.1 mph - N/A   Clear
12:54 AM 53.6 °F 42.8 °F 67% 30.10 in 10.0 mi South 8.1 mph - N/A   Clear
1:14 AM 51.8 °F 42.8 °F 71% 30.10 in 10.0 mi South 8.1 mph - N/A   Clear
1:33 AM 51.8 °F 42.8 °F 71% 30.10 in 10.0 mi South 6.9 mph - N/A   Clear
1:53 AM 50.0 °F 42.8 °F 76% 30.10 in 10.0 mi South 6.9 mph - N/A   Clear
2:14 AM 51.8 °F 42.8 °F 71% 30.10 in 10.0 mi South 8.1 mph - N/A   Clear
2:33 AM 51.8 °F 42.8 °F 71% 30.09 in 10.0 mi South 8.1 mph - N/A   Clear
2:54 AM 51.8 °F 42.8 °F 71% 30.09 in 10.0 mi South 10.4 mph - N/A   Clear
3:14 AM 51.8 °F 42.8 °F 71% 30.09 in 10.0 mi South 8.1 mph - N/A   Clear
3:33 AM 51.8 °F 42.8 °F 71% 30.09 in 10.0 mi South 8.1 mph - N/A   Clear
3:53 AM 50.0 °F 42.8 °F 76% 30.08 in 10.0 mi South 8.1 mph - N/A   Clear
4:14 AM 51.8 °F 42.8 °F 71% 30.08 in 10.0 mi South 8.1 mph - N/A   Clear
4:33 AM 50.0 °F 42.8 °F 76% 30.08 in 10.0 mi South 6.9 mph - N/A   Clear
4:53 AM 50.0 °F 42.8 °F 76% 30.08 in 10.0 mi South 8.1 mph - N/A   Clear
5:14 AM 50.0 °F 42.8 °F 76% 30.08 in 10.0 mi South 6.9 mph - N/A   Clear
5:33 AM 50.0 °F 42.8 °F 76% 30.08 in 10.0 mi South 8.1 mph - N/A   Clear
5:53 AM 50.0 °F 42.8 °F 76% 30.07 in 10.0 mi South 6.9 mph - N/A   Clear
6:14 AM 50.0 °F 42.8 °F 76% 30.07 in 10.0 mi South 8.1 mph - N/A   Clear
6:33 AM 50.0 °F 42.8 °F 76% 30.07 in 10.0 mi South 9.2 mph - N/A   Clear
6:53 AM 50.0 °F 42.8 °F 76% 30.07 in 10.0 mi South 9.2 mph - N/A   Clear
7:14 AM 50.0 °F 42.8 °F 76% 30.07 in 10.0 mi South 8.1 mph - N/A   Clear
7:33 AM 50.0 °F 42.8 °F 76% 30.07 in 10.0 mi South 9.2 mph - N/A   Clear
7:53 AM 51.8 °F 42.8 °F 71% 30.07 in 10.0 mi South 9.2 mph - N/A   Clear
8:14 AM 53.6 °F 42.8 °F 67% 30.06 in 10.0 mi South 9.2 mph - N/A   Clear
8:33 AM 53.6 °F 42.8 °F 67% 30.06 in 10.0 mi South 9.2 mph - N/A   Clear
8:53 AM 57.2 °F 42.8 °F 59% 30.05 in 10.0 mi South 9.2 mph - N/A   Clear
9:14 AM 60.8 °F 42.8 °F 52% 30.04 in 10.0 mi South 10.4 mph - N/A   Clear
9:33 AM 64.4 °F 42.8 °F 45% 30.05 in 10.0 mi SSW 11.5 mph 18.4 mph N/A   Mostly Cloudy
9:53 AM 62.6 °F 41.0 °F 45% 30.04 in 10.0 mi South 15.0 mph 20.7 mph N/A   Mostly Cloudy
10:14 AM 64.4 °F 42.8 °F 45% 30.04 in 10.0 mi SSW 15.0 mph 20.7 mph N/A   Mostly Cloudy
10:33 AM 66.2 °F 42.8 °F 43% 30.04 in 10.0 mi SSW 12.7 mph - N/A   Overcast
10:54 AM 68.0 °F 42.8 °F 40% 30.03 in 10.0 mi South 12.7 mph 18.4 mph N/A   Mostly Cloudy
11:13 AM 68.0 °F 42.8 °F 40% 30.03 in 10.0 mi South 13.8 mph - N/A   Scattered Clouds
11:33 AM 68.0 °F 42.8 °F 40% 30.03 in 10.0 mi SSW 17.3 mph 20.7 mph N/A   Mostly Cloudy
11:54 AM 68.0 °F 42.8 °F 40% 30.02 in 10.0 mi SSW 16.1 mph 21.9 mph N/A   Overcast
12:13 PM 68.0 °F 44.6 °F 43% 30.01 in 10.0 mi South 15.0 mph 19.6 mph N/A   Overcast
12:33 PM 68.0 °F 44.6 °F 43% 30.01 in 10.0 mi South 16.1 mph 21.9 mph N/A   Mostly Cloudy
12:54 PM 69.8 °F 44.6 °F 40% 30.00 in 10.0 mi SSW 16.1 mph 23.0 mph N/A   Scattered Clouds
1:13 PM 71.6 °F 44.6 °F 38% 29.99 in 10.0 mi SSW 18.4 mph 24.2 mph N/A   Scattered Clouds
1:33 PM 71.6 °F 42.8 °F 35% 29.98 in 10.0 mi SSW 18.4 mph 24.2 mph N/A   Mostly Cloudy
1:54 PM 69.8 °F 42.8 °F 38% 29.98 in 10.0 mi SSW 17.3 mph 27.6 mph N/A   Mostly Cloudy
2:13 PM 69.8 °F 44.6 °F 40% 29.97 in 10.0 mi SSW 15.0 mph 24.2 mph N/A   Mostly Cloudy
2:33 PM 69.8 °F 44.6 °F 40% 29.96 in 10.0 mi SSW 15.0 mph 19.6 mph N/A   Overcast
2:54 PM 69.8 °F 44.6 °F 40% 29.95 in 10.0 mi South 12.7 mph - N/A   Overcast
3:13 PM 69.8 °F 46.4 °F 43% 29.95 in 10.0 mi South 12.7 mph - N/A   Overcast
3:33 PM 68.0 °F 50.0 °F 52% 29.94 in 10.0 mi South 9.2 mph - N/A Rain Light Rain
3:54 PM 68.0 °F 48.2 °F 49% 29.93 in 10.0 mi South 8.1 mph - N/A   Overcast
4:14 PM 68.0 °F 46.4 °F 46% 29.92 in 10.0 mi South 8.1 mph - N/A   Overcast
4:33 PM 68.0 °F 46.4 °F 46% 29.91 in 10.0 mi South 9.2 mph - N/A Rain Rain
4:53 PM 68.0 °F 44.6 °F 43% 29.90 in 10.0 mi South 10.4 mph 16.1 mph N/A   Overcast
5:14 PM 68.0 °F 46.4 °F 46% 29.90 in 10.0 mi South 11.5 mph - N/A Rain Light Rain
5:33 PM 68.0 °F 46.4 °F 46% 29.89 in 10.0 mi South 9.2 mph - N/A Rain Light Rain
5:53 PM 68.0 °F 48.2 °F 49% 29.88 in 10.0 mi SSE 10.4 mph - N/A   Overcast
6:14 PM 68.0 °F 48.2 °F 49% 29.88 in 10.0 mi South 12.7 mph - N/A   Overcast
6:33 PM 68.0 °F 50.0 °F 52% 29.86 in 10.0 mi South 10.4 mph 18.4 mph N/A Rain Rain
6:53 PM 64.4 °F 50.0 °F 59% 29.86 in 10.0 mi South 13.8 mph 18.4 mph N/A   Overcast
7:14 PM 64.4 °F 51.8 °F 64% 29.86 in 10.0 mi South 17.3 mph 21.9 mph N/A Rain Rain
7:33 PM 64.4 °F 51.8 °F 64% 29.85 in 10.0 mi South 17.3 mph 24.2 mph N/A   Overcast
7:53 PM 64.4 °F 51.8 °F 64% 29.85 in 10.0 mi South 11.5 mph 19.6 mph N/A   Overcast
8:14 PM 62.6 °F 53.6 °F 72% 29.86 in 7.0 mi SSW 10.4 mph - 0.01 in Rain Rain
8:33 PM 60.8 °F 53.6 °F 77% 29.86 in 10.0 mi SSW 8.1 mph - 0.01 in   Overcast
8:53 PM 62.6 °F 53.6 °F 72% 29.86 in 10.0 mi South 10.4 mph - 0.01 in   Overcast
9:14 PM 62.6 °F 53.6 °F 72% 29.86 in 10.0 mi South 11.5 mph - N/A   Overcast
9:33 PM 62.6 °F 53.6 °F 72% 29.85 in 10.0 mi South 10.4 mph 17.3 mph N/A   Mostly Cloudy
9:53 PM 62.6 °F 53.6 °F 72% 29.86 in 10.0 mi SSW 5.8 mph - N/A   Overcast
10:14 PM 60.8 °F 53.6 °F 77% 29.86 in 10.0 mi SSW 4.6 mph - N/A   Scattered Clouds
10:33 PM 60.8 °F 53.6 °F 77% 29.86 in 10.0 mi South 4.6 mph - N/A   Scattered Clouds
10:53 PM 60.8 °F 53.6 °F 77% 29.86 in 10.0 mi SSE 4.6 mph - N/A   Clear
11:14 PM 60.8 °F 53.6 °F 77% 29.86 in 10.0 mi South 4.6 mph - N/A   Clear
11:33 PM 60.8 °F 53.6 °F 77% 29.86 in 10.0 mi South 4.6 mph - N/A   Mostly Cloudy
11:54 PM 60.8 °F 53.6 °F 77% 29.86 in 10.0 mi SSE 4.6 mph - N/A   Overcast